GFSCGP_prec_cloud_078.txt.gz
Cloud_Cover
0 0 0 0 0 0 4 1 72 36 27 68 11 27 100 100 97 5 89 100 27 98 82 100 91 66 77 0 0 0 99 0 0 0 0 90 21 7 72 8 5 0 47 0
0 0 0 0 0 0 0 73 79 76 100 100 11 52 98 98 100 72 100 100 95 100 96 46 80 98 96 1 0 0 10 0 0 0 8 37 33 17 97 67 70 66 12 0
0 0 0 0 0 0 0 0 54 69 100 100 98 66 100 100 100 91 58 74 91 97 86 37 100 1 53 96 0 0 0 0 0 0 7 100 47 98 100 88 0 8 5 0
0 0 0 0 0 0 0 0 65 44 100 36 26 83 60 32 6 43 59 4 79 86 100 87 67 7 77 57 23 0 0 0 0 0 14 3 63 93 8 2 100 5 1 18
0 0 0 0 0 0 0 3 64 8 98 5 0 22 13 11 99 16 2 29 83 66 96 89 100 5 7 25 17 0 0 0 0 0 0 0 0 54 53 55 99 90 50 39
0 0 0 0 0 4 5 5 40 100 100 23 35 73 35 5 95 88 62 6 85 38 85 95 96 63 69 9 0 0 0 0 0 0 0 0 0 74 95 4 79 77 2 36
4 0 0 0 0 1 4 5 4 35 90 31 31 100 94 1 54 100 100 57 44 100 100 73 99 33 48 33 91 0 0 0 0 0 0 0 0 8 98 100 100 27 93 52
25 1 3 0 0 0 5 5 33 5 5 5 8 15 3 32 99 100 100 80 71 99 100 88 100 54 92 55 100 1 0 0 0 0 0 0 0 0 8 100 98 83 98 76
92 39 10 0 0 0 27 9 63 100 3 16 47 34 14 78 66 100 100 100 16 74 100 55 100 95 96 100 10 15 0 0 0 0 0 0 0 0 0 9 24 0 90 58
67 25 97 2 0 8 82 18 23 89 88 21 100 0 3 8 0 36 60 2 49 100 85 100 100 100 84 100 100 49 0 0 0 0 0 0 0 0 0 0 0 9 74 98
44 45 92 90 0 0 24 90 7 61 95 62 100 94 8 84 5 0 0 0 65 82 100 100 100 100 100 100 100 97 54 4 0 0 0 0 0 0 0 0 0 0 0 1
99 76 100 78 4 0 95 93 56 0 3 48 100 100 91 98 3 0 2 8 99 99 93 100 100 100 100 100 100 100 100 66 4 2 1 5 0 0 0 0 0 0 0 0
20 31 88 98 66 0 0 0 5 65 80 27 100 31 5 58 98 20 38 70 92 100 100 100 100 100 100 100 100 100 66 97 100 99 13 6 0 0 0 0 0 0 0 0
100 100 100 41 93 64 0 0 0 0 26 93 96 80 7 5 8 69 100 88 60 53 93 100 100 100 100 100 100 100 100 100 100 100 100 87 19 74 29 0 0 0 0 0
100 100 100 100 100 62 58 2 1 0 0 100 100 33 2 40 16 23 23 91 59 24 58 96 100 90 93 100 100 100 76 100 100 100 100 84 100 100 100 7 0 0 0 0
76 92 100 100 100 68 82 100 87 4 0 100 22 34 44 0 0 9 24 0 0 0 48 31 11 28 73 83 99 100 100 100 100 100 100 7 100 100 100 100 10 6 0 0
100 99 41 89 100 100 100 32 16 5 21 100 39 54 66 2 14 8 0 0 0 0 12 2 0 9 59 51 67 93 100 100 100 100 100 100 66 99 100 100 100 86 0 0
100 100 98 78 94 71 92 98 13 10 93 92 5 99 92 17 0 2 0 0 0 0 0 0 0 0 0 5 94 100 100 100 100 100 100 100 100 100 100 100 96 12 92 41
100 100 100 100 78 93 98 64 100 100 100 10 8 46 100 6 4 0 0 0 0 0 0 0 0 0 0 15 4 45 70 100 100 100 100 100 100 100 100 98 56 18 80 95
6 100 91 100 87 97 100 97 12 93 100 64 91 7 3 1 0 0 0 0 0 0 0 0 0 0 0 0 0 28 8 40 95 5 44 7 8 85 100 100 97 100 95 98
98 78 100 35 83 100 100 98 100 100 98 34 100 94 5 3 0 0 0 0 0 0 0 0 0 0 0 0 0 0 0 0 1 70 6 3 5 7 100 96 49 45 85 99
100 98 61 59 93 100 32 100 100 100 100 100 100 88 100 83 52 0 1 0 0 0 0 0 0 0 0 0 0 0 0 0 0 1 1 0 2 56 5 97 67 89 51 96
64 100 100 100 91 10 99 66 100 100 100 100 100 100 100 100 99 11 1 6 2 0 0 0 0 0 0 0 0 0 0 0 0 0 0 0 0 0 1 24 100 90 92 28
36 0 61 41 81 99 66 94 5 83 100 100 100 100 100 100 100 100 100 91 34 52 24 3 0 0 0 0 0 0 0 0 0 0 0 0 0 0 0 0 2 16 5 46
62 89 40 14 5 5 5 5 5 5 2 61 99 100 100 100 100 100 100 100 100 100 100 100 29 1 2 16 0 4 0 0 0 0 0 0 0 0 0 0 0 0 0 0
74 94 82 47 15 72 63 32 5 5 4 4 4 3 31 98 100 100 100 100 100 100 100 100 81 6 16 21 18 13 18 4 13 0 0 0 0 0 0 0 0 0 0 0

GFSCGP_prec_cloud_081.txt.gz
Cloud_Cover
0 0 0 0 0 0 0 4 54 100 100 100 23 87 34 100 100 100 100 100 45 19 45 69 4 0 0 0 0 0 100 0 0 0 0 0 4 10 78 100 11 55 0 0
0 0 0 0 0 0 0 5 94 100 100 11 89 85 29 100 100 96 100 98 42 64 36 79 100 17 16 2 0 0 16 0 0 0 3 0 2 100 86 62 17 8 0 0
0 0 0 0 0 0 0 0 92 47 60 27 98 88 5 75 100 100 76 89 34 94 100 34 15 18 1 5 0 0 0 0 0 0 0 30 0 2 5 6 96 5 1 0
0 0 0 0 0 0 0 0 80 33 50 100 100 90 3 10 100 100 100 41 26 98 83 93 5 39 0 1 0 0 0 0 0 0 4 100 50 9 31 59 100 5 0 0
0 0 0 0 0 0 0 4 99 89 67 100 41 54 5 16 99 100 100 85 24 48 84 94 62 7 94 1 6 6 0 0 0 0 1 0 4 100 100 63 97 5 0 0
0 0 0 0 0 0 0 7 98 28 100 74 5 31 5 0 5 76 100 100 90 11 59 62 65 75 49 8 88 56 0 0 0 0 0 0 4 65 98 86 99 46 45 59
0 0 0 0 0 0 0 15 53 82 100 11 79 89 98 12 4 31 100 100 86 100 89 44 65 74 24 7 16 4 0 0 0 0 0 0 0 4 35 100 95 77 86 95
0 0 0 0 0 0 0 5 46 98 18 88 98 91 7 7 94 60 37 100 100 100 100 95 42 93 93 72 99 1 0 0 0 0 0 0 0 0 0 38 99 5 81 27
98 2 0 0 0 0 0 0 11 100 5 88 23 0 0 1 2 0 22 100 100 95 7 57 66 100 100 100 97 100 13 81 8 0 0 0 0 0 0 0 5 4 18 39
5 5 4 5 0 0 0 0 2 5 34 100 14 4 11 64 82 26 30 100 100 100 100 100 100 45 64 97 99 77 93 9 78 0 0 0 0 0 0 0 0 0 0 0
5 44 18 28 0 0 3 9 0 2 5 64 98 10 20 91 21 1 0 100 100 100 100 100 100 100 100 100 100 100 100 100 100 100 7 2 0 0 0 0 0 0 0 22
8 26 3 50 67 0 86 18 21 0 5 100 100 26 92 100 87 10 0 99 100 100 100 100 100 100 100 100 100 100 100 100 100 100 100 77 93 5 3 0 0 0 0 0
76 98 100 97 88 5 8 97 68 2 38 100 96 36 40 78 100 38 5 42 100 100 100 92 100 100 100 100 100 100 100 100 100 100 100 100 96 32 100 85 46 100 100 0
100 100 100 71 76 9 5 33 4 4 42 100 69 6 8 72 66 5 5 48 100 100 100 100 51 100 100 100 100 100 100 100 100 100 100 100 100 100 100 100 100 100 100 71
100 100 100 100 99 11 4 5 5 0 74 83 70 5 4 5 5 40 21 59 100 100 100 100 100 66 100 94 100 100 100 100 100 100 100 94 100 100 100 100 100 100 100 100
100 100 100 100 88 5 5 0 13 89 100 99 30 2 0 5 17 100 100 100 100 81 100 100 100 100 100 97 100 100 100 100 100 100 100 100 100 100 100 100 100 100 100 100
97 47 78 100 100 100 21 95 99 54 100 20 0 0 1 0 3 67 100 100 28 52 51 95 100 100 77 10 60 100 100 100 100 100 100 100 100 100 100 100 100 100 100 100
56 37 22 99 100 100 100 80 100 100 87 4 3 2 35 48 0 0 3 5 3 5 2 0 16 56 46 35 10 37 100 100 100 100 100 100 100 100 100 100 100 100 100 100
98 89 25 23 50 91 100 100 100 100 15 5 5 0 25 10 31 4 2 2 0 0 1 0 0 0 0 0 0 0 100 100 100 100 100 100 100 100 100 100 100 100 100 100
57 100 100 100 27 30 78 29 100 100 100 100 6 5 5 5 7 5 3 0 0 0 1 0 0 0 0 0 0 0 2 96 100 100 100 100 100 100 100 100 100 100 100 100
6 94 77 89 100 100 81 32 100 100 100 100 100 95 15 3 3 0 1 2 0 0 0 0 0 0 0 0 0 0 0 0 54 94 100 100 100 100 97 100 100 100 95 100
58 97 45 58 82 93 42 21 82 78 100 72 100 25 74 92 4 0 0 0 0 0 0 0 0 0 0 0 0 0 0 0 12 100 98 100 100 100 100 100 100 100 100 100
75 63 65 50 39 5 88 97 100 100 100 100 98 88 5 18 14 5 1 3 2 0 0 0 0 0 0 0 0 0 0 0 0 45 97 100 100 100 100 100 100 100 100 100
5 2 14 40 32 5 10 64 7 74 100 100 90 6 97 100 38 3 0 0 4 5 0 0 0 0 0 0 0 0 0 0 0 0 1 29 100 100 100 100 100 100 100 94
5 9 28 6 0 4 6 5 5 10 5 23 69 96 50 32 98 100 21 2 2 4 7 9 1 0 0 0 0 0 0 0 0 0 0 0 20 64 34 60 54 76 94 5
11 41 17 6 10 52 4 5 5 5 5 79 100 81 100 99 99 100 100 96 48 6 2 19 51 35 9 0 0 0 0 0 0 0 0 0 0 0 0 0 0 0 3 100

GFSCGP_prec_cloud_084.txt.gz
Cloud_Cover
0 0 0 0 0 0 0 0 96 100 100 100 100 100 98 100 100 88 100 100 100 100 100 40 5 3 0 0 0 0 0 0 0 0 0 9 61 71 63 94 37 0 0 20
0 0 0 0 0 0 0 4 98 96 78 100 97 98 91 100 100 100 100 95 100 100 100 77 0 2 0 0 0 0 0 0 0 0 0 1 76 97 5 99 6 0 0 4
0 0 0 0 0 0 0 4 38 34 75 43 94 46 91 8 79 100 91 100 100 100 100 97 16 10 40 4 11 0 0 0 0 0 0 3 6 4 5 96 67 1 0 2
0 0 0 0 0 0 0 4 5 11 81 66 91 94 66 5 24 100 99 100 95 77 87 100 100 11 18 0 0 0 4 2 0 0 0 0 5 7 72 80 86 43 6 1
0 0 0 0 0 0 0 5 95 5 5 26 79 13 98 71 97 100 98 100 88 45 82 97 100 30 30 20 0 5 5 4 0 0 0 12 53 90 89 5 100 13 16 5
0 0 0 0 0 0 0 71 88 26 5 9 27 88 82 92 41 78 100 93 82 100 100 100 100 100 54 28 46 3 7 5 0 0 0 0 0 87 55 86 95 82 17 4
0 0 0 0 0 0 0 53 28 4 30 56 92 47 73 30 39 87 88 100 94 100 100 100 100 100 86 5 30 0 70 3 0 0 0 0 0 0 5 71 77 21 5 5
0 0 0 0 0 0 0 12 8 5 96 11 100 37 97 7 5 9 100 98 100 100 88 100 34 95 100 49 1 3 6 5 5 4 0 0 0 0 32 5 39 98 30 4
0 0 0 0 0 0 0 0 12 98 72 82 42 68 8 19 10 49 73 61 100 89 95 100 99 91 83 67 81 90 93 91 99 1 5 6 0 0 0 1 5 62 60 7
0 0 0 0 0 0 0 0 54 64 5 1 7 3 8 43 8 19 42 99 100 100 100 96 98 94 93 98 83 85 96 57 80 42 99 53 5 3 5 0 3 5 2 82
0 0 0 0 0 0 0 0 3 71 6 4 2 30 43 0 0 98 63 87 100 100 100 100 100 100 100 100 100 100 100 100 100 100 100 93 35 100 100 10 2 0 2 62
5 5 1 1 5 0 0 6 79 100 94 5 75 86 92 5 6 5 85 42 100 100 100 100 100 100 100 100 100 100 100 100 96 100 100 100 99 100 100 100 100 100 100 100
59 97 43 21 100 2 1 8 87 69 5 20 9 73 56 28 61 55 27 46 100 100 100 100 100 100 100 100 100 98 99 100 100 100 100 100 100 100 100 100 100 100 100 100
82 100 100 100 89 14 5 5 86 95 83 24 4 98 81 14 5 100 72 94 100 100 100 100 100 100 100 100 100 100 100 100 100 100 100 100 100 100 100 100 100 100 100 100
100 99 86 100 94 10 4 100 2 0 5 5 0 4 2 8 5 5 41 65 98 100 100 100 100 92 100 100 100 100 100 100 100 100 100 100 100 100 100 100 100 100 100 100
32 100 100 100 100 91 44 3 80 66 49 0 0 16 0 0 5 5 29 11 85 100 100 100 100 100 100 100 100 100 100 100 100 100 100 100 100 100 100 100 100 100 100 100
85 8 98 100 100 100 100 86 24 8 62 1 3 0 0 0 5 28 41 100 99 100 98 100 100 100 100 100 100 100 100 100 100 100 100 100 100 100 100 100 100 100 100 100
68 5 19 81 100 100 100 90 100 45 40 46 0 0 0 0 0 11 89 98 74 33 90 100 100 100 100 100 100 100 100 100 100 100 100 100 100 100 100 100 100 100 100 100
3 2 37 59 96 100 100 100 93 68 19 0 0 0 0 0 0 1 56 57 5 3 7 45 10 100 100 100 100 100 100 100 100 100 100 100 100 100 100 100 100 100 100 100
0 0 2 31 58 98 100 100 100 100 88 72 4 0 0 0 0 0 3 5 2 0 0 3 5 0 76 100 100 100 100 100 100 100 100 100 100 100 100 100 100 100 100 100
0 0 1 2 4 5 32 90 88 60 5 78 62 5 5 3 0 3 2 5 5 5 5 5 5 1 0 0 0 0 1 34 9 100 100 100 100 100 100 100 100 100 100 100
3 3 0 0 0 0 8 23 96 95 100 76 71 70 54 45 5 5 5 5 81 35 5 5 5 5 5 0 0 0 0 0 0 0 39 100 100 100 100 100 100 100 100 100
4 2 5 0 0 0 0 4 3 67 99 100 100 84 70 95 91 64 2 0 0 0 20 92 31 5 2 0 0 0 0 0 0 0 0 0 77 100 100 100 100 100 100 100
2 2 1 0 3 3 5 4 5 84 90 96 91 70 27 31 33 70 100 98 7 5 0 0 0 0 0 0 0 0 0 0 0 0 0 0 0 0 12 100 100 100 100 100
1 0 3 18 5 1 0 4 2 2 35 87 91 98 75 83 6 5 74 98 38 5 5 1 0 0 0 0 0 0 0 0 0 0 0 0 0 0 0 4 94 100 100 100
0 0 0 0 0 5 0 0 0 2 5 2 5 20 43 35 90 3 32 83 88 100 78 64 11 5 3 0 0 0 0 0 0 0 0 0 0 0 0 0 0 1 19 99

GFSCGP_prec_cloud_087.txt.gz
Cloud_Cover
0 0 0 0 2 0 4 5 5 33 100 100 100 100 100 100 100 100 100 100 100 100 92 69 32 0 0 0 0 0 0 0 0 0 4 94 68 9 21 32 0 0 5 5
0 0 0 0 0 0 3 5 9 5 99 100 100 100 100 100 91 97 100 100 100 100 48 88 95 56 0 0 0 0 0 0 0 0 0 1 61 5 5 5 4 0 3 5
0 0 0 0 0 0 0 5 20 19 68 100 100 100 100 100 100 100 100 100 100 51 100 94 97 78 59 0 4 0 0 0 0 0 1 5 5 9 9 18 2 5 0 4
0 0 0 0 0 0 0 10 89 47 57 78 100 100 100 100 100 100 99 100 100 63 100 100 100 44 7 42 9 0 0 0 0 0 0 0 18 98 61 94 81 5 5 5
0 0 0 0 0 0 0 5 100 6 5 5 44 100 68 100 100 100 94 100 55 100 99 97 90 100 42 92 58 0 0 0 0 0 0 0 0 36 62 74 100 100 10 14
0 0 0 0 0 0 0 2 96 60 5 2 15 19 97 88 98 90 75 100 100 100 100 99 100 100 100 100 98 46 0 4 0 0 0 0 4 4 5 70 84 82 47 11
0 0 0 0 0 0 0 4 86 79 7 0 0 4 5 6 5 34 86 100 80 86 100 80 80 100 100 97 70 33 93 2 5 0 4 0 2 1 0 15 99 95 36 6
0 0 0 0 0 0 0 2 5 37 5 0 0 1 5 90 7 84 100 97 100 94 59 99 87 97 100 100 100 18 8 27 5 5 14 1 6 3 5 3 5 5 30 37
0 0 0 0 0 0 0 0 4 40 5 0 0 8 4 52 76 80 97 92 100 99 90 100 100 100 100 93 98 32 80 85 97 92 4 1 14 5 2 5 3 5 8 7
0 0 0 0 0 0 0 0 2 10 10 4 1 3 5 31 100 100 100 97 100 100 100 100 60 100 91 91 98 92 100 99 64 4 9 5 24 7 37 6 4 5 66 100
3 0 0 0 0 0 0 0 5 5 5 5 6 0 2 5 45 41 100 97 100 100 100 100 100 100 100 100 100 100 100 100 99 67 100 78 43 5 93 100 78 11 99 93
99 6 0 0 0 0 0 0 3 5 5 5 4 0 70 6 0 1 100 90 100 100 100 100 100 100 100 100 100 100 100 100 100 100 82 100 100 99 100 100 100 100 100 100
100 100 49 4 4 6 0 0 0 4 5 5 5 0 71 47 0 6 1 11 91 100 100 100 100 100 100 100 100 100 100 100 100 100 100 100 87 100 100 96 100 100 100 100
100 100 100 99 100 8 0 0 0 0 0 5 4 19 100 12 0 0 3 36 61 100 100 100 100 100 100 100 100 100 100 100 100 100 100 100 70 100 97 92 100 100 100 100
100 100 100 100 99 5 1 0 0 0 1 1 0 3 11 3 0 0 0 37 95 72 100 100 100 100 100 100 100 100 100 100 100 100 100 100 100 100 93 98 96 85 100 100
100 100 100 100 100 84 84 1 0 0 2 5 5 5 5 0 0 3 3 3 79 100 98 94 100 100 100 100 100 100 100 100 100 100 100 100 100 100 91 96 56 87 100 54
71 96 100 100 100 100 100 19 2 0 0 5 5 4 5 2 0 0 1 5 95 87 97 98 100 100 100 100 100 100 100 100 100 100 100 100 100 100 100 100 100 100 79 93
1 5 82 100 100 100 96 100 50 5 5 0 0 0 3 0 0 0 0 21 57 100 100 100 100 100 100 100 100 100 100 100 100 100 100 100 100 100 100 100 100 100 100 94
0 2 13 26 100 53 96 90 100 92 53 1 0 0 0 0 3 0 8 87 96 97 100 100 100 100 100 100 100 99 100 100 100 100 100 100 100 100 100 100 100 100 100 100
0 0 4 20 36 100 100 100 100 100 71 36 5 3 5 5 19 38 2 11 51 96 100 100 100 96 100 100 78 49 44 83 97 100 100 100 100 100 100 100 100 100 100 100
0 3 1 4 2 5 75 100 100 100 29 5 92 96 100 95 72 5 5 7 10 5 31 18 6 5 90 36 92 80 5 23 100 100 100 100 100 100 100 100 100 100 100 100
0 0 0 0 0 0 0 15 77 100 100 78 33 16 70 24 22 45 20 13 91 100 90 42 5 5 5 5 5 2 97 5 64 100 100 100 100 100 100 100 100 100 100 100
0 0 0 0 0 0 0 0 0 20 100 100 70 90 85 5 97 100 92 8 42 37 100 9 6 5 5 5 5 5 4 3 5 5 98 100 100 100 100 100 100 100 100 100
0 0 0 0 0 0 0 0 0 0 1 42 88 99 67 100 100 100 100 100 99 67 48 45 61 5 5 12 35 5 5 4 3 86 47 97 100 100 100 100 100 100 100 100
0 0 0 3 0 2 0 0 0 0 0 2 5 40 55 91 100 100 100 100 100 100 90 11 2 0 0 0 0 1 5 3 1 0 72 100 100 100 100 100 100 100 100 100
2 1 0 0 0 0 0 3 0 0 0 0 0 5 5 26 90 100 100 100 100 100 99 87 42 5 1 0 0 0 0 0 0 0 0 5 98 100 100 100 100 100 100 100

GFSCGP_prec_cloud_090.txt.gz
Cloud_Cover
0 0 5 5 4 0 0 9 94 100 100 100 100 100 100 100 100 94 68 30 99 92 45 69 61 83 4 0 0 0 0 0 0 0 1 5 5 4 4 0 1 5 5 5
0 0 0 5 5 0 0 3 5 85 100 100 100 100 100 100 100 89 52 24 79 84 94 5 79 45 5 0 0 0 0 0 0 0 0 5 5 2 5 5 5 5 5 5
0 0 0 0 0 0 0 1 1 48 100 100 100 100 100 100 100 100 98 80 50 74 100 21 77 14 5 0 0 0 0 0 0 0 1 4 4 4 5 5 5 6 5 27
0 0 0 0 0 0 0 7 67 92 100 98 100 100 100 100 100 100 100 100 58 5 100 87 28 88 5 0 0 0 0 0 0 0 0 0 0 4 5 5 5 5 4 7
0 0 0 0 0 0 0 6 84 83 40 100 100 100 100 100 100 97 100 100 83 16 12 49 100 100 77 88 45 35 0 0 0 0 0 0 0 3 3 5 38 38 4 5
0 0 0 0 0 0 0 66 41 95 69 33 83 99 100 89 71 100 100 100 100 100 72 96 100 100 100 30 100 66 0 0 2 0 0 0 0 0 16 5 20 91 85 0
0 0 0 0 0 0 0 76 92 46 85 52 26 100 100 100 100 93 100 100 100 100 92 96 95 100 100 79 96 98 2 15 0 5 5 2 0 5 5 3 9 15 42 2
0 0 0 0 0 0 0 5 18 12 5 5 2 82 100 98 98 99 100 100 100 99 100 95 100 75 100 100 94 100 14 17 0 5 5 4 4 35 1 0 2 81 5 5
0 0 0 0 0 0 0 0 4 5 5 5 2 24 100 53 100 100 100 100 100 100 100 59 100 33 99 100 100 100 95 78 6 5 47 4 5 5 5 5 3 5 6 1
2 0 0 0 0 0 0 0 0 4 5 5 4 0 30 83 98 100 100 100 100 100 100 100 100 99 100 100 100 90 100 59 60 61 5 11 14 22 5 6 5 4 67 30
46 0 0 0 0 0 0 0 0 0 0 5 4 0 0 0 26 99 100 100 93 100 100 100 100 100 100 100 100 100 98 65 100 99 86 39 78 100 57 46 81 100 100 100
100 65 0 0 0 0 0 0 0 0 0 0 5 1 0 0 14 84 100 98 100 97 100 100 100 100 100 100 100 100 99 99 71 100 100 94 80 100 100 100 100 100 97 100
100 100 87 1 0 0 0 0 0 0 0 0 3 2 35 25 20 77 100 100 100 100 100 100 100 100 100 96 99 100 100 100 100 100 100 100 100 51 100 100 99 99 76 75
100 100 100 99 7 0 0 0 0 0 0 0 0 16 89 40 7 45 45 82 98 100 99 100 100 100 100 100 100 100 100 100 100 100 100 100 100 71 100 100 100 100 100 93
100 100 100 100 95 5 0 0 0 0 0 0 0 0 2 22 0 0 9 90 95 99 100 100 100 100 100 100 100 100 100 100 100 100 96 100 100 97 99 100 100 100 95 100
100 100 100 100 90 88 42 5 0 0 0 0 0 0 0 5 5 5 7 49 100 100 100 100 100 100 100 100 100 100 100 100 100 100 100 100 100 100 97 70 99 100 88 62
100 100 100 99 49 98 56 40 5 0 0 0 0 0 0 4 5 2 0 0 16 42 9 72 100 100 100 100 100 100 100 100 100 100 100 100 100 100 100 100 100 100 72 26
38 100 100 100 22 5 8 96 45 5 2 0 0 0 0 5 5 5 0 3 0 0 2 22 97 100 100 100 100 100 100 100 100 100 100 100 100 100 100 100 100 100 100 67
5 11 100 100 92 5 5 9 66 72 51 6 42 4 4 4 4 5 3 1 5 64 98 100 100 100 100 100 100 100 100 100 100 100 100 100 100 100 100 100 100 100 100 100
5 5 5 20 28 2 4 5 91 100 33 56 100 86 100 69 60 7 0 0 17 100 100 100 100 100 100 100 100 100 94 100 100 100 100 100 100 100 100 100 100 100 100 100
0 8 11 5 0 3 5 5 43 13 72 97 100 99 97 100 34 32 39 8 8 79 82 64 96 78 62 87 86 85 100 100 100 100 100 100 100 100 100 100 100 100 100 100
0 0 4 5 2 0 3 5 34 100 100 100 100 98 100 89 38 58 91 98 100 98 38 64 11 7 2 3 31 85 98 100 100 99 43 100 100 100 100 100 100 100 100 100
3 0 0 0 0 0 0 0 1 6 94 100 95 6 81 88 56 56 56 39 100 98 98 90 11 5 0 0 0 0 45 93 96 100 100 53 14 97 100 100 100 100 100 100
0 0 0 0 0 0 0 0 0 0 5 77 95 100 97 100 100 100 100 100 91 82 77 87 34 9 5 26 7 5 2 0 65 100 94 46 58 15 5 99 100 100 100 100
0 0 0 0 0 0 0 0 0 0 0 3 23 23 90 100 100 100 100 100 100 100 69 91 43 50 91 77 33 76 42 5 5 1 66 100 100 100 75 7 99 100 100 100
5 5 1 0 0 0 0 0 0 0 0 0 1 3 5 9 100 100 100 100 100 100 85 76 85 77 100 69 6 5 9 22 11 8 5 5 2 6 4 5 5 12 100 100

GFSCGP_prec_cloud_093.txt.gz
Cloud_Cover
0 5 80 97 5 96 100 96 14 95 100 100 100 100 100 100 100 100 100 56 71 93 12 5 5 18 26 0 0 0 0 0 0 0 0 5 1 2 4 3 0 0 1 5
0 0 80 36 5 5 89 100 71 75 96 100 100 100 100 100 100 100 97 48 72 45 17 5 6 81 68 15 0 0 0 0 0 0 0 2 5 5 5 5 5 5 5 5
0 0 1 78 55 70 10 25 89 61 100 100 100 100 100 100 100 100 88 100 92 8 5 20 14 9 67 69 0 0 0 0 0 0 1 4 2 5 5 5 8 5 5 5
0 0 0 1 99 98 96 5 43 76 100 100 97 100 100 100 100 100 87 58 16 50 5 42 43 6 20 50 0 0 0 0 0 0 0 0 0 1 5 1 0 0 5 6
0 0 0 0 1 100 100 12 5 6 100 100 100 100 100 100 100 100 100 83 5 6 56 10 40 23 44 5 12 0 0 0 0 0 0 0 0 0 0 5 5 0 0 4
0 0 0 0 6 34 30 78 78 71 100 100 100 100 100 100 100 100 100 79 62 54 62 47 93 38 100 7 4 6 1 0 0 0 4 0 1 0 0 4 5 2 0 0
0 0 0 0 2 88 96 100 73 74 82 100 100 100 100 100 100 100 100 100 100 24 75 95 99 80 63 42 72 100 4 0 0 0 1 3 3 11 31 5 5 5 1 0
0 0 0 0 0 0 48 100 100 23 38 100 100 100 100 100 100 100 100 100 100 93 26 99 100 97 99 100 99 100 62 11 6 0 1 4 1 7 2 5 5 5 65 4
0 0 0 0 0 0 0 0 42 89 6 2 97 100 100 100 100 100 100 100 98 89 100 100 100 100 100 100 100 74 100 65 99 13 5 2 0 5 7 0 1 5 31 42
15 0 0 0 0 0 0 0 4 92 80 5 4 100 100 100 100 100 100 100 100 100 100 100 100 100 100 100 100 100 100 72 100 92 48 37 5 3 5 4 0 2 5 41
100 6 0 0 0 0 0 0 0 10 5 5 5 0 34 100 100 100 100 100 100 100 100 100 100 100 100 100 100 100 100 96 53 100 100 83 20 34 29 18 5 100 54 98
100 99 5 0 0 0 0 0 0 0 2 4 1 1 0 1 52 99 100 99 100 100 100 100 100 100 100 100 100 100 100 100 98 95 100 100 100 57 14 88 100 94 67 8
100 100 56 4 0 0 0 0 0 0 0 0 0 4 9 48 66 82 100 99 100 100 100 100 100 100 100 100 100 100 100 100 65 100 100 100 100 100 99 82 68 79 64 14
100 100 100 60 1 0 0 0 0 0 0 0 0 0 49 53 51 99 100 97 100 100 100 100 100 100 100 100 99 99 100 100 100 100 100 100 100 100 100 100 96 58 75 40
100 100 100 100 69 0 0 0 0 0 0 0 0 0 0 6 30 23 88 100 100 100 100 100 100 100 100 100 100 100 100 100 100 100 100 100 100 100 91 96 57 100 83 47
100 100 100 100 100 100 0 0 0 0 0 0 0 0 0 14 22 6 57 100 100 100 100 100 100 100 100 100 100 100 100 100 100 100 100 100 100 100 100 100 100 100 84 51
96 100 100 100 99 100 100 4 0 0 0 0 0 0 0 18 0 0 10 83 100 100 98 100 100 100 100 100 100 100 100 100 100 100 100 100 100 100 94 100 100 100 86 23
72 100 100 100 96 64 94 100 72 0 0 0 0 0 0 0 0 0 0 0 17 25 70 100 100 100 100 100 100 100 100 100 100 100 100 100 100 100 100 100 100 100 98 99
26 9 100 100 27 34 90 94 92 100 73 1 0 5 5 4 1 2 3 0 0 0 0 2 68 100 100 100 100 100 100 100 100 100 100 100 100 100 100 79 80 100 100 96
96 16 5 92 98 12 5 5 5 27 54 99 58 5 21 70 69 21 2 5 0 0 23 36 100 100 100 100 100 100 100 100 100 100 100 100 100 100 100 100 100 100 100 84
46 32 5 5 5 52 6 5 4 4 5 5 31 14 5 10 5 5 5 5 3 8 99 100 100 100 100 100 98 100 100 100 100 100 100 100 100 100 100 100 100 100 100 100
0 1 5 5 5 0 1 1 0 0 0 1 3 4 5 5 5 5 24 42 5 42 94 96 100 95 72 98 100 100 100 100 95 87 100 100 100 100 100 100 100 100 100 100
0 0 0 2 2 0 0 0 0 0 5 3 0 0 5 5 5 12 5 5 7 9 8 5 5 0 2 4 90 94 67 33 14 55 25 5 48 100 100 100 100 100 100 100
0 0 0 0 0 0 0 0 0 0 0 5 5 5 5 5 5 62 99 85 27 55 5 5 5 5 5 5 13 96 89 5 0 0 0 2 8 37 95 95 100 100 100 100
0 0 0 0 0 0 0 0 0 1 1 5 2 2 5 3 5 34 82 90 67 30 54 9 15 41 50 36 68 98 100 68 2 0 2 1 0 2 12 80 98 91 100 99
0 1 4 5 0 0 0 0 0 0 0 5 5 3 0 1 0 3 13 100 100 100 91 87 85 63 30 93 82 83 51 9 5 3 0 4 5 5 1 5 10 53 84 100

GFSCGP_prec_cloud_096.txt.gz
Cloud_Cover
0 5 14 60 5 100 100 73 100 100 100 100 100 100 100 100 100 97 62 1 15 6 5 5 3 39 0 0 0 7 9 5 6 4 36 38 50 25 6 26 0 0 0 0
0 0 83 39 5 65 100 100 98 93 99 87 100 100 100 100 100 100 88 20 53 62 70 9 5 36 0 0 0 0 6 0 0 3 43 90 73 60 58 30 0 3 0 0
0 0 4 78 92 100 100 100 98 80 93 100 100 100 100 100 100 98 99 70 90 51 72 9 6 20 5 0 0 0 0 0 0 14 8 7 23 2 5 9 8 0 4 4
0 0 0 16 100 100 100 90 82 89 58 100 100 100 100 100 100 99 81 100 100 100 100 59 11 5 5 4 0 0 0 0 0 0 1 4 10 20 45 55 58 0 2 42
0 0 0 0 82 100 97 94 89 21 99 100 100 100 100 100 100 100 98 97 100 94 56 31 5 5 5 2 0 0 0 0 0 0 0 5 4 81 17 47 11 38 1 0
0 0 0 0 0 94 58 98 100 55 100 100 100 100 100 100 100 100 96 100 100 100 98 86 34 13 12 4 0 0 0 0 0 2 5 5 16 7 63 48 18 43 68 14
0 0 0 0 0 1 81 75 79 91 87 100 100 100 100 100 100 100 100 100 100 97 98 99 44 23 49 5 5 0 0 0 0 0 0 12 5 5 3 41 29 96 100 26
0 0 0 0 0 0 3 8 92 98 86 100 100 100 100 100 100 100 100 100 100 100 21 96 97 96 43 73 18 8 91 2 0 0 2 0 0 30 5 12 5 10 23 13
5 0 0 0 0 0 0 46 26 80 100 100 100 100 100 100 100 100 100 100 100 100 60 58 72 100 98 90 92 100 100 56 52 18 52 5 3 4 37 22 5 96 66 91
31 7 0 0 0 0 0 0 63 29 100 94 100 100 100 100 100 100 100 91 100 100 100 71 79 93 94 100 100 100 91 100 72 42 18 5 6 5 3 1 5 54 11 84
15 100 9 0 0 0 0 0 0 5 5 92 98 100 100 100 100 100 99 72 83 99 90 86 100 100 98 100 100 100 100 84 45 100 45 54 9 48 5 5 5 5 30 5
96 100 71 0 0 0 0 0 0 0 5 5 97 100 100 100 100 100 100 100 100 94 100 70 100 100 93 54 83 100 100 100 100 100 56 69 95 18 58 4 4 100 100 45
82 100 100 53 0 0 0 0 0 2 5 41 27 99 100 100 100 100 100 100 100 100 100 98 100 95 100 100 100 100 100 100 100 100 85 63 58 100 98 70 6 38 76 8
85 72 88 100 43 2 0 0 0 0 0 21 99 97 99 100 100 100 100 100 100 100 100 100 100 100 100 100 100 100 100 100 100 100 100 100 100 100 100 100 89 87 9 5
99 76 98 100 28 1 4 0 0 0 1 54 99 94 46 6 82 100 100 100 100 100 100 100 100 100 100 100 100 100 100 100 100 100 91 100 100 100 100 100 98 100 34 15
100 100 97 100 75 81 0 0 0 0 0 0 1 64 4 0 0 15 37 48 100 100 100 100 100 100 100 100 100 100 100 100 100 100 100 100 100 69 99 100 100 100 81 96
91 91 100 99 100 100 90 0 1 0 0 0 2 0 0 0 0 2 36 50 77 100 98 99 100 100 100 100 100 100 100 100 100 100 100 100 100 100 100 77 100 100 100 74
100 34 97 100 96 100 100 92 7 0 0 0 0 0 0 0 0 24 34 47 51 88 99 85 100 100 100 100 100 100 100 100 100 100 100 100 100 100 100 99 100 100 100 91
100 46 66 90 99 100 100 95 100 82 26 0 0 0 0 0 2 5 5 36 47 60 65 100 81 100 100 100 100 100 100 100 100 100 100 100 100 100 100 100 100 87 62 45
66 86 43 100 100 100 90 100 100 100 89 49 0 0 0 0 1 0 0 11 27 32 60 87 72 88 100 100 100 100 100 100 100 100 100 100 100 100 100 100 100 100 100 100
82 17 5 66 98 25 5 5 55 100 42 42 33 4 0 3 8 9 36 35 7 17 36 15 9 47 98 100 100 100 100 100 100 100 100 100 100 100 100 97 100 100 96 99
98 83 100 4 34 20 26 5 5 28 94 33 13 5 5 5 4 0 29 15 0 0 0 7 81 100 100 68 97 100 100 100 100 100 100 100 100 100 100 100 100 84 100 100
1 7 8 0 5 53 10 5 5 5 5 7 29 5 5 5 5 5 5 4 5 7 28 93 100 100 100 100 100 75 23 99 100 100 100 100 100 100 100 64 87 100 94 100
0 0 0 0 0 3 5 5 5 5 5 5 1 1 0 0 0 5 5 5 3 15 64 86 10 2 0 0 36 100 100 100 100 100 100 87 100 100 95 50 36 23 87 99
0 0 0 0 0 0 0 0 0 0 0 0 3 5 4 4 0 0 1 4 3 3 5 5 0 0 0 0 2 5 5 3 5 5 62 88 11 13 0 9 4 18 59 35
0 0 0 0 0 0 0 0 0 1 4 5 1 0 0 0 0 0 3 4 2 1 1 5 5 5 5 5 5 5 65 94 64 64 97 99 99 99 50 2 0 0 0 0

GFSCGP_prec_cloud_099.txt.gz
Cloud_Cover
0 0 0 5 6 100 79 88 100 100 84 91 100 100 100 100 100 86 100 100 100 100 78 95 96 52 31 21 14 100 99 11 6 2 81 90 90 100 100 100 6 9 41 16
0 0 4 63 97 92 100 100 100 100 99 100 100 100 100 100 100 100 100 100 100 100 99 96 100 86 21 12 21 13 100 3 10 17 100 88 100 97 100 100 6 87 52 9
0 0 5 80 88 1 94 100 100 100 100 100 94 100 100 100 100 100 100 100 92 100 98 59 100 68 43 4 2 1 32 2 5 100 86 100 100 98 83 92 48 38 49 24
0 0 3 72 21 5 95 78 100 100 100 69 100 100 100 100 100 100 100 100 99 88 98 88 75 100 83 7 19 0 0 15 0 13 63 55 93 21 5 100 100 97 76 53
0 0 0 0 70 59 98 100 100 100 100 6 100 100 100 100 100 100 100 100 100 98 72 100 60 72 100 45 98 22 0 1 40 0 71 9 69 100 100 100 95 100 5 76
0 0 0 0 27 32 92 100 100 100 100 38 57 100 100 100 100 100 100 100 42 100 71 38 83 88 100 90 100 94 0 0 0 0 0 13 18 48 100 94 92 88 96 14
0 0 0 0 0 1 19 100 100 100 100 100 95 100 100 100 100 100 100 100 100 100 50 93 94 37 29 81 91 100 0 1 0 1 1 3 13 8 69 100 64 100 96 100
0 0 0 0 1 3 0 96 100 100 94 97 100 100 100 100 100 100 100 100 100 100 100 76 5 11 4 98 19 100 6 1 3 3 12 17 5 25 19 96 96 24 49 5
64 0 3 0 0 1 2 3 99 100 98 31 96 100 100 100 100 100 100 100 100 100 99 92 89 25 83 41 100 98 8 7 8 22 5 12 17 27 79 24 6 100 38 100
100 92 11 2 0 0 1 6 53 100 100 89 100 100 100 100 100 100 100 100 97 100 98 100 72 13 37 100 100 22 100 100 100 52 33 5 6 5 5 9 5 9 70 100
100 79 99 9 0 0 0 0 6 99 100 100 100 100 100 100 100 100 100 100 97 100 100 100 100 100 36 92 79 64 100 100 100 83 96 84 64 55 52 4 5 5 16 34
11 100 64 64 4 0 0 0 0 5 94 100 100 100 100 100 100 100 100 100 100 100 100 100 100 100 96 100 15 100 100 100 100 100 70 100 8 10 100 97 60 5 29 94
91 6 62 100 91 3 0 0 0 4 5 97 100 100 100 100 100 100 100 97 94 100 100 100 100 84 100 91 98 50 100 99 96 100 100 100 100 45 86 79 94 60 15 68
85 95 65 89 99 41 0 0 0 1 6 5 86 98 98 97 28 100 100 100 91 97 100 100 100 100 85 61 85 100 76 47 98 100 100 100 100 100 99 100 100 100 100 93
100 62 79 100 74 59 44 0 4 5 15 100 100 100 53 90 99 99 100 100 100 100 99 100 89 93 100 92 79 98 61 68 100 100 100 98 92 100 100 100 100 100 100 100
100 89 6 99 100 100 100 79 6 4 0 3 100 14 100 34 62 100 100 100 100 100 100 100 100 100 100 96 86 100 100 72 100 100 60 83 100 100 89 100 100 100 100 100
5 5 98 79 92 100 98 100 98 100 99 36 91 100 5 13 4 81 100 100 99 100 100 100 100 100 100 100 100 99 100 100 100 100 100 99 100 97 99 61 99 79 100 100
27 93 15 96 5 74 99 94 100 100 36 14 22 1 21 8 1 0 100 95 100 100 100 100 100 100 100 100 100 100 100 100 100 100 100 100 100 100 99 100 72 98 100 100
91 80 100 39 92 90 60 86 99 97 52 2 3 0 0 0 0 0 5 98 100 100 100 100 100 99 100 100 100 100 100 100 100 100 100 100 100 100 100 99 97 98 100 100
100 100 98 98 100 100 98 100 100 100 100 4 0 0 0 0 0 4 38 100 99 100 100 100 100 100 100 100 100 100 100 100 100 100 100 100 100 54 68 97 100 100 100 95
100 100 100 95 70 100 100 100 100 100 100 27 48 1 0 0 5 62 65 99 100 100 100 96 100 100 100 100 100 100 100 100 100 100 100 100 100 100 100 100 100 100 100 100
97 75 98 95 59 100 87 86 31 22 100 77 100 99 34 0 0 13 61 100 99 98 56 91 90 71 100 100 100 100 100 100 100 100 100 100 100 100 100 100 100 100 100 100
8 69 89 46 49 4 100 98 8 5 6 61 100 100 42 99 26 4 38 56 59 58 42 24 0 0 0 39 30 100 100 100 100 100 100 100 100 100 100 100 100 100 53 94
3 21 93 98 99 2 0 1 5 5 0 0 7 52 51 15 6 5 7 28 37 42 8 7 1 17 42 64 84 37 15 14 78 93 100 73 98 100 100 100 100 80 60 3
3 0 1 2 5 4 0 0 5 5 5 3 1 0 2 13 44 30 20 42 58 46 10 8 11 64 82 15 43 62 92 78 52 52 55 79 91 100 100 100 91 88 100 64
1 0 0 0 4 2 3 2 5 5 5 5 5 5 5 5 3 5 41 84 98 80 32 5 0 0 3 5 5 5 0 0 0 5 22 69 99 100 78 46 6 18 17 11

GFSCGP_prec_cloud_102.txt.gz
Cloud_Cover
0 0 0 0 27 95 47 100 91 62 84 29 12 100 100 69 62 97 100 8 14 99 19 3 98 67 0 0 80 100 100 46 10 92 56 44 5 95 1 99 96 19 0 0
0 0 0 5 98 26 38 100 100 100 100 100 100 100 100 100 100 99 19 100 98 93 31 25 36 55 0 0 71 45 43 4 26 38 98 76 100 2 46 1 0 1 24 1
0 0 2 5 92 87 100 92 100 100 100 100 100 100 100 100 100 100 100 100 100 85 0 23 28 11 0 0 0 19 90 0 5 17 86 85 64 10 49 52 79 18 32 0
0 0 2 92 99 24 100 100 100 100 100 100 100 100 100 100 100 100 100 100 100 100 51 42 0 97 4 1 0 0 0 0 1 23 83 23 34 97 53 100 100 58 85 22
0 0 0 12 99 100 98 5 100 100 100 100 100 100 100 100 100 100 100 100 100 77 78 100 42 24 23 4 0 0 0 0 2 25 21 20 47 84 99 75 74 9 14 66
0 0 0 0 87 77 100 98 100 100 100 100 100 100 100 100 100 100 100 100 99 100 40 100 31 85 95 10 2 2 0 0 0 0 49 15 5 100 100 100 29 100 100 90
0 0 0 0 28 46 100 100 100 100 100 100 100 100 100 100 100 100 100 100 100 99 59 33 99 98 70 98 1 0 0 0 0 0 0 0 1 8 98 40 95 97 100 100
0 0 0 0 0 12 100 97 100 100 100 100 100 100 100 100 100 100 100 100 100 100 90 30 86 94 86 4 79 0 0 0 3 0 0 1 4 0 9 20 99 100 100 100
93 10 0 0 0 3 100 11 100 100 100 100 100 100 100 100 100 100 100 100 100 100 100 100 92 100 75 100 100 10 2 1 0 1 1 0 2 1 10 0 35 100 100 100
97 22 0 3 1 1 23 97 93 100 100 100 100 99 100 100 100 100 100 100 100 100 100 93 100 100 100 100 100 100 93 6 10 56 2 4 5 1 4 0 16 100 100 100
72 87 5 72 4 0 0 0 7 86 100 100 100 100 100 100 100 100 100 100 100 100 100 100 84 99 91 100 100 79 82 43 85 76 24 75 91 5 0 0 0 14 52 100
27 97 100 77 74 0 0 3 5 5 99 100 100 100 40 100 100 100 100 100 100 100 100 77 45 100 100 92 34 10 97 92 100 81 14 52 79 100 1 14 18 11 22 93
0 0 5 44 92 74 0 0 5 3 96 100 100 100 100 100 100 100 100 100 100 100 74 39 90 7 38 74 87 57 12 63 62 6 33 62 19 12 98 8 96 100 92 2
9 0 4 87 88 69 66 0 5 5 28 100 100 92 10 100 100 66 27 100 100 100 97 97 98 86 100 96 94 47 5 5 23 44 96 100 94 72 100 35 6 99 100 82
47 4 5 97 34 82 10 58 0 5 0 30 93 98 3 46 99 95 95 100 100 100 100 100 100 100 100 100 100 100 23 5 13 99 100 100 99 100 84 99 94 100 100 100
68 5 39 0 4 4 6 70 2 3 5 81 4 1 5 3 100 98 100 100 100 100 100 100 100 100 100 100 100 100 100 100 47 23 100 92 67 85 99 98 99 100 100 100
20 81 21 17 81 74 100 100 100 44 0 18 100 16 5 2 100 100 98 42 100 100 100 100 100 100 100 100 100 100 100 100 78 16 54 100 86 100 100 99 80 100 96 62
13 58 5 73 76 24 83 5 20 60 89 97 37 0 0 4 79 100 100 90 100 100 100 100 100 100 100 100 100 100 100 100 100 100 99 100 72 100 83 100 100 98 97 69
69 87 83 100 100 92 96 93 100 100 100 95 15 11 100 70 100 100 100 100 100 100 100 100 100 100 100 100 100 100 100 100 100 100 100 100 100 100 100 99 99 100 100 100
100 100 100 100 100 100 100 100 99 61 100 72 76 94 100 56 100 100 100 100 100 100 100 98 100 100 100 100 100 100 100 100 100 100 100 100 100 100 100 100 100 100 99 100
100 100 100 100 100 100 100 100 100 100 80 100 100 100 17 1 20 100 94 78 80 36 52 94 100 100 100 100 100 100 100 100 100 100 100 100 100 100 100 100 100 100 100 100
95 100 100 100 100 100 100 100 100 91 97 69 100 100 51 5 73 100 3 1 1 23 5 40 60 100 100 100 100 100 100 100 100 100 100 98 100 100 100 99 100 100 100 86
77 100 100 100 100 100 100 100 100 100 100 100 44 24 15 5 13 44 19 2 64 80 97 62 23 7 100 99 96 98 90 100 100 100 100 100 100 100 100 100 100 100 100 100
4 88 99 92 95 53 100 100 100 100 100 100 27 5 11 60 5 29 52 45 100 100 67 20 0 0 0 1 21 24 34 57 100 100 100 100 100 100 100 100 100 100 100 100
30 5 8 5 60 5 4 71 100 100 100 94 7 0 4 30 16 98 80 100 100 100 100 34 30 0 0 0 0 14 33 25 35 23 72 100 100 100 100 99 100 100 96 99
2 2 0 3 26 5 3 3 5 5 68 11 5 1 0 1 20 53 100 100 100 100 100 100 2 0 0 14 15 2 11 9 18 44 99 93 67 57 76 93 100 83 99 91

GFSCGP_prec_cloud_105.txt.gz
Cloud_Cover
0 0 0 0 4 5 5 87 100 98 100 100 100 100 100 92 80 38 5 5 100 45 38 58 0 0 0 0 0 7 26 7 90 17 1 4 76 100 52 11 45 68 100 90
0 0 0 0 65 100 34 71 100 90 100 100 100 100 100 100 97 100 100 89 96 56 5 0 0 0 1 0 0 96 9 82 57 93 9 40 94 96 32 52 0 1 56 26
0 0 0 2 85 75 100 89 89 100 100 100 100 100 100 100 100 99 81 80 28 100 84 34 0 28 0 0 0 0 64 5 22 98 59 27 93 99 23 5 4 75 100 91
0 0 0 13 64 56 100 100 96 100 100 100 100 100 100 100 100 100 99 100 100 33 99 48 0 0 1 1 0 0 0 4 24 22 100 93 99 100 98 91 64 49 96 82
0 0 0 1 100 6 99 100 100 100 91 100 100 100 100 100 100 100 100 85 100 99 52 55 3 0 5 4 0 0 1 0 5 73 92 100 100 100 100 89 100 100 100 84
0 0 0 4 95 80 9 100 100 100 94 100 100 100 100 100 100 100 100 90 100 100 100 40 81 0 1 3 3 0 0 0 0 34 4 90 100 100 94 99 100 100 100 100
0 0 0 11 89 96 5 90 100 100 100 100 100 100 100 100 100 100 100 100 100 100 100 52 83 32 25 21 0 0 0 0 0 0 0 1 23 100 96 49 81 100 100 100
0 0 0 0 2 40 0 60 100 100 100 100 100 100 100 100 100 100 99 46 86 100 100 100 90 41 100 12 1 1 0 0 2 0 0 0 0 15 39 100 100 100 100 100
8 49 16 0 0 0 1 4 100 100 100 100 100 100 100 100 100 100 99 96 96 100 100 100 85 100 8 32 16 33 96 11 0 4 4 0 0 3 2 94 100 100 100 100
5 1 5 0 1 0 8 12 14 100 100 100 100 100 100 100 100 100 100 100 100 100 100 96 100 100 78 100 97 74 100 100 72 1 25 28 98 5 0 5 56 100 100 100
12 6 52 5 28 0 5 0 5 100 100 100 100 100 100 100 100 100 100 100 100 100 100 95 80 77 100 100 100 100 100 100 100 94 11 86 98 82 67 2 5 5 47 100
2 5 7 9 97 6 0 1 2 6 100 100 100 100 100 100 98 95 100 100 100 100 100 100 99 100 79 95 100 100 100 100 100 100 100 100 79 96 100 100 4 4 11 16
5 16 8 31 54 100 16 0 0 0 100 100 100 100 100 100 68 80 100 100 100 100 100 100 100 100 100 100 100 100 100 100 100 94 100 100 79 79 46 100 100 100 100 100
89 14 64 76 56 11 39 18 1 0 71 100 100 100 87 60 6 18 100 100 100 96 100 100 100 94 100 100 100 100 100 100 100 70 76 93 28 9 67 99 100 100 99 100
100 99 99 100 99 100 12 11 80 2 0 100 100 100 82 88 79 6 100 100 100 100 100 100 100 100 100 100 100 100 100 100 100 100 96 60 24 79 76 99 100 100 58 100
100 100 62 5 50 72 20 100 35 2 0 100 100 100 100 100 98 83 100 100 100 100 100 100 100 100 100 100 100 100 100 100 100 100 88 82 65 83 88 100 100 100 38 5
95 12 6 7 6 8 100 32 80 5 2 84 69 99 76 100 100 100 100 100 100 100 100 100 100 100 100 100 100 100 100 100 100 100 100 100 13 10 48 99 100 100 50 22
96 12 55 21 86 100 37 100 100 28 8 0 0 6 100 100 100 100 100 100 100 100 100 100 100 100 100 100 100 100 100 100 100 100 100 100 74 100 43 99 100 100 72 98
7 48 5 41 8 58 60 99 27 5 5 0 0 0 2 56 100 100 100 100 81 94 100 100 100 100 100 100 100 100 100 100 100 100 100 100 100 100 100 97 85 99 74 46
5 75 32 5 94 84 88 75 100 77 72 23 7 93 17 26 37 34 96 100 100 100 31 8 98 100 100 100 100 100 100 100 100 100 100 100 100 100 100 100 100 100 99 99
82 97 71 5 64 99 99 98 100 100 73 68 95 97 91 100 100 86 24 100 100 94 100 90 94 100 100 100 100 100 100 100 100 100 100 100 100 100 100 100 100 100 100 100
100 99 93 48 100 100 100 100 88 100 100 100 6 5 78 65 100 100 100 100 100 100 100 100 95 100 100 100 97 100 100 100 100 100 100 100 100 100 100 100 100 100 100 100
100 100 96 100 100 100 100 100 100 100 100 92 86 100 100 100 100 100 100 100 100 54 52 71 100 93 100 100 100 100 100 100 100 100 100 100 100 100 100 100 100 100 100 100
88 54 100 100 100 100 100 100 100 100 100 100 32 99 66 100 100 100 100 100 100 100 42 3 35 18 3 76 39 19 2 100 100 100 100 100 91 100 100 100 100 98 100 100
1 4 57 100 100 100 100 100 100 100 100 100 100 65 66 68 96 100 100 100 98 100 92 13 0 0 4 4 1 5 9 3 55 96 100 100 100 100 100 100 100 100 100 100
4 3 0 26 100 100 100 100 100 100 100 54 30 8 0 0 84 33 72 66 37 96 100 62 40 0 0 1 16 12 14 54 9 4 40 34 17 34 86 91 47 53 96 94

GFSCGP_prec_cloud_108.txt.gz
Cloud_Cover
0 0 0 0 0 80 94 30 31 100 100 100 100 100 100 100 90 100 5 60 100 100 4 95 3 0 0 0 0 5 5 5 3 5 5 1 5 5 8 97 40 73 98 100
0 0 0 0 0 87 58 8 73 100 100 100 100 100 100 100 100 100 100 64 5 87 35 0 60 0 0 0 0 0 4 3 2 5 67 5 98 8 28 61 28 67 8 5
0 0 0 0 1 3 5 100 97 75 97 100 100 100 100 100 100 100 100 72 5 7 81 0 0 0 0 0 0 0 0 0 5 5 97 79 30 97 75 100 19 5 85 13
0 0 0 1 6 30 13 52 66 100 93 100 100 100 100 100 100 100 100 79 73 100 33 5 4 12 0 4 0 0 0 0 2 5 28 76 99 100 100 100 100 5 62 64
3 0 0 1 14 85 8 20 72 68 92 100 100 100 100 100 100 100 100 99 88 94 66 15 94 5 61 3 4 0 0 0 0 5 96 26 6 100 76 98 90 100 94 96
52 0 0 0 5 74 5 5 75 100 94 83 100 100 100 100 100 100 100 100 100 94 66 96 21 8 1 4 4 0 0 0 0 0 5 5 5 91 100 100 100 100 100 100
98 0 0 2 5 5 18 5 81 100 84 87 99 100 100 100 100 100 100 100 100 100 98 48 18 5 5 1 0 0 1 5 5 0 1 5 5 6 17 58 99 100 98 98
100 1 16 5 4 4 5 38 75 100 64 89 100 100 100 100 100 100 97 100 100 100 64 100 3 29 5 5 0 0 5 2 20 38 0 0 5 7 87 25 94 100 82 100
100 12 58 65 5 2 0 3 74 100 32 100 100 100 100 100 100 90 60 99 100 100 99 100 97 7 1 0 1 6 4 77 94 100 100 17 5 2 5 81 100 100 100 100
90 5 0 3 69 1 0 0 3 100 90 100 100 100 100 100 100 100 92 99 100 100 100 94 70 61 46 18 41 8 40 100 100 100 100 77 5 48 4 12 22 100 88 67
56 0 2 2 0 0 0 0 4 5 50 100 100 100 100 100 93 100 100 100 100 100 100 100 99 100 48 100 100 100 100 100 100 100 100 100 100 100 100 100 94 5 30 84
92 1 100 15 79 0 0 0 87 32 52 100 100 100 100 100 100 6 97 98 100 100 100 100 79 100 78 100 100 100 100 100 100 98 90 100 100 94 100 100 100 100 44 81
82 52 96 100 100 45 14 22 96 26 18 100 100 100 100 100 77 44 96 97 79 98 100 100 100 97 90 99 100 100 100 100 100 100 100 100 100 100 95 100 100 96 26 18
100 100 65 100 62 7 4 0 23 48 5 29 100 100 100 100 100 84 80 100 96 100 100 100 100 98 100 100 100 100 100 100 100 100 100 100 100 100 100 100 97 98 94 94
100 100 63 25 9 59 83 53 0 1 0 100 100 100 100 100 98 100 100 100 100 100 100 100 100 100 100 100 100 100 100 100 100 100 100 100 100 94 99 100 100 100 96 74
57 100 98 100 89 64 53 4 0 0 0 100 100 100 100 100 100 100 100 100 100 100 100 100 100 100 100 100 100 100 100 100 100 100 100 100 100 100 100 100 100 100 100 90
56 100 94 100 100 100 70 99 78 46 0 10 100 100 100 100 100 100 100 100 100 100 100 100 100 100 100 100 100 100 100 100 100 100 100 100 100 100 100 100 100 100 96 100
30 75 47 84 100 100 98 77 97 23 0 0 90 100 100 100 100 100 100 100 100 100 100 100 100 100 100 100 100 100 100 100 100 100 100 100 100 100 98 100 100 100 99 73
5 12 5 73 100 10 5 36 100 6 0 15 100 100 100 100 100 100 100 100 100 100 100 100 100 100 100 100 100 100 100 100 100 100 100 100 100 100 100 100 100 100 81 88
5 5 36 20 6 7 10 9 6 100 8 33 99 95 100 100 100 100 100 100 100 100 100 100 100 100 100 100 100 100 100 100 100 100 100 100 100 100 100 100 100 100 100 77
52 7 5 96 66 6 60 97 5 100 48 13 63 2 87 100 100 100 100 100 100 100 100 100 100 100 100 100 100 100 100 100 100 100 100 100 100 100 100 100 83 81 47 88
84 65 24 5 69 34 16 100 100 46 66 100 74 18 5 76 100 100 100 100 100 100 100 100 100 100 100 100 100 100 100 100 100 100 100 100 100 100 100 100 100 30 49 99
68 76 100 100 72 36 75 27 100 100 100 77 67 100 100 63 100 99 100 100 100 100 100 100 100 100 100 100 100 100 100 100 100 100 100 100 100 100 100 100 100 100 96 100
5 5 100 100 95 10 99 100 100 100 100 33 36 30 7 100 100 100 100 100 100 100 100 100 100 100 100 100 100 100 100 100 100 100 100 100 100 100 100 100 100 100 100 100
2 2 4 27 100 100 100 100 100 100 71 66 38 5 95 100 100 100 100 100 100 100 100 81 100 100 100 100 100 100 100 100 100 83 100 100 99 98 100 100 100 100 99 46
0 0 0 2 100 94 100 100 100 100 100 62 5 5 5 13 100 100 100 100 100 100 100 100 100 91 6 21 46 88 100 100 100 100 45 20 20 5 91 100 100 100 100 100

GFSCGP_prec_cloud_111.txt.gz
Cloud_Cover
0 0 0 0 0 0 86 100 100 100 100 100 100 100 100 100 100 85 100 30 6 5 12 0 97 0 0 0 1 1 0 5 5 22 96 100 6 11 5 5 87 5 0 0
0 0 0 0 0 0 54 100 93 100 100 100 100 100 100 100 100 100 100 100 100 5 3 0 0 84 0 0 0 2 0 47 5 5 59 100 100 44 69 68 69 38 1 1
0 0 0 0 0 4 8 20 95 100 100 100 100 100 100 100 100 100 84 97 98 10 4 0 1 3 0 0 0 0 0 12 71 5 61 47 100 100 100 99 77 100 52 42
0 0 0 0 0 6 10 56 100 84 100 100 100 100 100 100 100 100 100 100 100 16 6 0 5 3 0 0 0 0 0 2 45 5 5 92 42 95 100 100 100 83 59 55
0 0 0 0 0 67 10 88 94 88 100 100 100 100 100 100 100 100 100 100 80 94 5 8 12 1 4 0 0 0 0 5 5 7 5 13 54 38 100 84 100 100 84 17
40 11 0 1 68 5 11 6 58 15 96 100 100 100 100 100 100 96 100 98 96 91 76 100 59 1 4 0 0 0 0 0 4 5 30 5 93 72 16 98 71 100 99 100
100 89 88 26 13 5 2 2 4 2 59 100 100 100 100 100 100 85 100 98 100 69 94 85 32 5 3 0 0 0 0 0 5 0 4 5 5 28 14 46 100 100 99 94
82 85 100 100 53 5 5 0 4 5 100 48 100 100 100 100 100 100 87 100 100 96 100 76 52 34 37 0 0 0 0 2 5 5 2 3 5 7 53 13 7 31 48 95
100 95 83 98 30 4 24 2 31 5 77 67 100 100 100 100 100 100 100 100 100 100 100 100 100 99 100 5 0 0 6 2 97 100 46 7 2 5 6 23 13 94 25 16
100 99 56 42 5 0 3 100 44 5 98 64 100 100 100 100 100 100 100 100 100 100 100 65 60 42 34 82 4 1 84 5 46 86 100 100 65 28 25 59 5 98 50 17
100 100 98 53 4 0 0 0 0 0 18 99 96 100 100 100 100 100 100 100 41 63 76 100 100 78 100 99 100 65 100 6 99 72 100 100 100 84 100 100 95 14 18 89
100 100 85 100 68 0 0 2 3 4 11 67 32 100 100 100 100 100 100 100 70 37 73 94 100 84 100 100 100 100 100 58 100 100 100 100 100 100 100 100 100 100 37 91
100 100 100 100 65 55 43 5 0 0 5 4 10 100 100 100 100 100 72 100 85 72 100 100 100 100 22 81 100 90 80 100 100 100 100 100 100 100 100 100 93 50 100 100
100 100 100 100 76 41 4 5 3 1 5 0 11 93 100 100 100 100 100 100 99 98 100 100 100 100 100 96 100 62 86 78 99 100 100 100 100 100 100 100 90 99 64 66
100 100 100 100 100 92 76 5 4 0 5 0 0 72 100 100 100 100 100 100 100 100 100 100 100 100 100 100 100 100 100 100 98 100 100 100 100 100 100 100 100 100 100 98
100 100 100 100 100 99 97 3 0 0 0 0 0 84 100 100 100 100 90 100 100 97 100 100 100 100 100 100 100 100 100 100 100 100 100 100 100 100 100 100 100 100 100 100
80 100 100 100 100 98 19 1 0 0 83 64 20 92 100 100 100 100 100 100 98 93 100 100 100 100 100 100 100 100 100 100 100 100 100 100 100 100 100 100 100 100 100 100
80 100 100 100 100 100 98 12 0 55 2 7 62 100 100 100 100 100 100 100 100 100 100 100 100 100 100 100 100 100 100 100 100 100 100 100 100 100 100 100 100 100 100 100
99 100 100 100 100 74 100 17 71 100 2 0 48 34 100 100 100 100 100 100 100 100 100 100 100 100 100 100 100 100 100 100 100 100 100 100 100 100 100 100 100 100 100 100
100 100 49 98 76 26 100 100 100 100 76 0 26 46 49 99 100 100 100 100 100 100 100 100 100 100 100 100 100 100 100 100 100 100 100 100 100 100 100 100 100 100 100 96
35 34 5 48 89 29 100 100 100 50 2 3 19 47 24 56 100 100 100 100 100 100 100 100 100 100 100 100 100 100 100 100 100 100 100 100 100 100 100 100 100 100 100 76
96 72 5 2 62 71 89 97 100 97 100 98 96 100 88 27 94 99 100 100 100 100 100 100 100 100 100 100 100 100 100 100 100 100 100 100 100 100 100 100 100 100 100 98
100 66 54 49 3 18 84 5 6 90 98 100 100 84 98 82 100 100 100 100 100 100 100 100 100 100 100 100 100 100 100 100 100 100 100 100 100 100 100 100 100 100 100 100
5 84 44 49 74 24 4 5 5 45 100 100 100 21 62 100 100 100 100 100 100 100 100 100 100 100 100 100 100 100 100 100 100 100 100 100 100 100 100 100 100 100 100 100
2 0 4 45 5 32 88 100 98 64 98 100 100 100 7 100 92 46 100 100 100 100 100 100 100 100 100 100 100 100 100 100 100 70 63 99 100 100 100 100 100 100 100 100
0 0 0 0 2 68 80 100 100 99 100 100 100 100 73 65 72 45 66 66 66 84 100 100 100 100 100 100 100 100 100 100 100 100 100 94 98 100 100 100 100 100 70 99

GFSCGP_prec_cloud_114.txt.gz
Cloud_Cover
0 0 0 0 0 0 0 95 100 100 100 100 100 100 100 100 100 100 100 9 5 0 1 0 5 1 0 0 5 4 4 5 100 85 100 52 5 4 5 10 4 5 17 1
0 0 0 0 0 0 0 60 100 100 100 100 100 100 100 100 100 100 100 42 63 7 0 0 37 52 0 0 0 4 5 1 5 21 99 56 44 40 56 6 0 1 3 5
0 0 0 0 0 0 0 46 100 100 100 100 100 100 100 100 100 100 87 67 8 5 0 0 0 2 1 0 0 5 25 5 5 5 20 67 50 86 9 10 4 2 5 5
0 0 0 0 0 0 0 0 100 100 100 100 100 100 100 100 100 100 98 100 75 5 7 2 5 5 0 1 0 0 0 2 3 1 5 39 48 45 87 88 95 43 0 5
0 0 0 0 0 0 0 4 58 100 100 100 100 100 100 100 100 100 88 16 79 49 5 2 0 5 0 0 0 0 0 2 1 0 2 4 12 92 11 84 100 100 20 5
0 0 0 0 0 0 1 5 4 100 100 100 100 100 100 100 100 100 95 44 91 83 61 5 72 47 0 0 4 0 0 0 3 8 5 14 5 78 100 87 100 100 100 13
0 0 0 0 2 3 4 5 3 1 100 100 100 100 47 100 100 100 100 96 100 99 17 1 52 7 2 0 0 3 0 0 0 0 4 5 5 5 6 92 13 39 92 100
0 0 1 5 48 31 43 3 0 0 59 100 100 100 100 100 100 100 100 90 81 100 89 5 9 6 2 3 0 0 0 0 0 0 0 4 5 5 5 5 12 5 9 82
0 5 4 15 90 67 5 0 1 2 5 100 100 100 100 100 100 100 100 96 100 100 96 88 97 68 85 2 0 0 0 0 12 8 0 4 3 5 14 5 5 16 65 24
0 5 94 72 93 14 87 11 16 5 3 100 100 100 100 100 100 100 100 98 100 99 98 63 88 76 59 3 1 0 0 0 10 72 100 75 27 4 64 96 18 22 55 99
0 4 90 91 98 44 100 5 82 32 20 26 100 100 100 100 100 100 100 100 100 100 99 88 98 53 99 48 12 5 3 5 4 3 100 100 100 100 55 100 100 81 6 5
1 7 99 100 35 84 98 89 4 74 6 5 81 100 100 100 100 100 100 100 100 100 100 88 100 94 100 84 67 78 98 99 100 100 100 100 100 100 100 100 55 100 100 99
5 5 99 87 36 85 41 98 0 80 57 0 5 89 100 100 100 100 100 100 100 100 100 94 98 100 100 100 99 100 100 100 100 95 69 93 100 100 100 98 98 62 11 12
3 6 85 100 27 99 100 100 15 92 54 1 33 72 99 100 100 100 100 100 100 100 100 94 66 95 100 94 72 100 100 100 100 94 99 84 85 92 100 98 100 100 96 97
1 100 100 100 100 100 100 100 46 13 50 6 93 94 97 100 100 100 100 100 100 100 100 89 98 92 100 100 83 100 100 86 100 71 100 100 100 88 100 100 100 100 32 88
2 6 100 100 100 100 100 100 43 0 28 6 23 74 100 100 100 100 100 100 100 100 100 100 100 100 100 100 100 100 100 100 100 100 100 100 100 100 88 100 100 100 100 100
30 30 89 96 100 100 100 100 91 0 62 100 29 46 100 100 100 100 100 100 100 100 100 100 100 100 100 100 100 100 100 100 100 100 100 100 100 100 100 100 100 100 100 100
99 90 67 100 100 75 100 100 78 5 3 39 49 100 100 100 100 100 100 100 100 100 100 100 100 100 100 94 100 100 100 100 100 100 100 100 100 100 100 100 100 100 100 100
25 97 97 100 96 100 100 100 100 90 5 1 99 98 100 100 98 100 100 100 100 100 100 100 100 100 100 100 100 100 100 100 100 100 100 100 100 100 100 100 100 100 100 100
100 55 98 100 92 100 100 100 100 100 100 5 5 97 100 67 97 100 100 100 100 100 100 100 100 100 100 100 100 100 100 100 100 100 100 100 100 100 100 100 100 100 100 80
98 100 21 99 100 100 100 100 100 100 100 94 64 83 33 16 82 72 78 100 100 100 100 100 100 100 100 100 100 100 100 100 100 100 100 100 100 100 100 100 100 100 100 100
2 27 20 5 6 99 100 100 100 100 100 100 100 12 14 70 100 92 42 99 100 100 100 100 100 100 100 100 100 100 100 100 100 100 100 100 100 100 100 100 100 100 100 100
5 5 5 6 5 43 100 100 100 100 100 100 100 100 98 100 100 15 30 100 100 100 100 100 100 100 100 100 100 100 100 100 100 100 100 100 100 100 100 100 100 100 100 100
0 4 96 54 64 5 76 100 100 100 56 10 83 100 100 29 65 99 39 78 37 100 97 100 100 100 100 100 100 100 100 100 100 100 100 100 100 100 100 100 100 100 100 100
0 0 1 5 4 78 59 37 100 100 98 83 90 69 100 100 73 100 75 7 70 61 100 100 100 100 100 100 100 100 100 100 100 100 100 100 100 100 100 100 100 100 100 100
0 0 0 0 3 6 75 98 94 86 100 99 95 88 80 100 100 100 100 98 100 39 100 100 100 100 100 100 100 100 100 93 44 100 100 100 100 100 100 100 100 100 100 100

GFSCGP_prec_cloud_117.txt.gz
Cloud_Cover
0 0 0 0 0 0 0 0 0 99 100 98 37 100 100 99 92 100 97 100 22 5 1 0 0 0 0 0 5 34 5 5 4 4 0 0 0 4 17 5 0 0 5 3
0 0 0 0 0 0 0 0 2 45 100 100 100 92 100 97 99 100 100 100 76 11 5 0 0 0 0 0 0 5 5 8 7 7 5 4 1 0 2 0 5 1 0 0
0 0 0 0 0 0 0 0 3 4 100 100 99 100 100 100 100 99 100 100 5 12 41 2 1 0 0 0 0 0 0 14 5 34 4 11 5 5 3 3 0 4 4 0
0 0 0 0 0 0 0 0 0 6 100 100 87 66 98 100 100 100 100 100 24 93 5 5 0 0 0 0 0 0 0 0 3 5 5 5 5 5 4 0 0 0 2 1
0 0 0 0 0 0 0 0 0 3 98 100 100 60 100 100 100 100 100 100 22 100 21 8 5 0 0 0 2 0 0 0 0 0 0 2 5 5 99 98 0 0 0 0
0 0 0 0 0 0 0 0 0 0 50 100 100 77 91 100 100 100 100 100 5 63 73 11 5 39 0 0 0 0 0 0 0 0 0 0 5 39 5 49 100 9 0 0
0 0 0 0 0 0 0 0 0 1 0 100 100 100 54 100 100 100 100 100 6 6 23 5 5 4 0 0 5 1 0 0 0 0 2 0 1 2 17 10 70 100 47 8
0 0 0 0 0 0 0 0 5 4 1 100 100 100 76 100 100 96 100 100 98 21 41 3 6 0 5 1 0 4 0 0 0 0 1 4 0 0 1 2 5 49 95 12
0 0 0 0 0 1 3 1 0 1 0 33 100 100 97 100 100 97 100 100 100 100 87 28 3 5 36 0 0 0 0 0 0 0 0 5 0 5 5 4 5 5 26 100
0 0 0 0 0 3 0 0 1 1 6 5 100 100 100 100 100 100 100 100 100 98 98 20 3 6 5 1 0 0 1 2 5 6 3 2 3 92 45 5 5 13 40 73
0 0 0 0 1 5 25 0 0 2 4 5 93 100 100 95 100 100 100 100 100 64 100 79 9 16 92 9 5 0 2 54 5 11 41 45 96 100 100 81 50 5 33 99
0 0 2 1 0 12 79 5 3 5 99 5 80 100 100 100 100 100 100 100 100 100 100 100 100 100 100 68 11 16 2 0 5 4 1 98 100 100 100 100 54 70 81 18
0 1 0 7 14 88 5 14 4 2 93 100 100 100 100 100 100 100 100 100 100 100 100 100 100 100 100 80 48 87 86 34 1 1 2 100 100 100 94 100 100 72 55 44
5 0 0 13 100 93 31 5 5 18 33 100 88 100 100 100 100 100 100 100 100 100 100 100 100 100 100 100 98 31 72 100 92 41 19 5 89 100 24 40 60 78 78 68
9 0 0 5 43 87 8 32 94 78 60 99 56 100 100 100 100 100 100 100 100 100 100 98 100 85 100 100 100 69 71 100 100 99 100 20 5 82 5 21 100 73 30 31
0 0 0 7 81 27 100 38 100 100 100 100 89 100 100 100 100 100 100 100 100 100 100 100 100 100 100 100 100 84 81 73 100 100 52 89 100 98 67 62 97 100 66 46
0 0 2 4 50 98 33 96 100 100 100 100 100 100 100 100 100 100 100 100 100 100 100 100 100 100 100 100 100 100 100 57 86 98 100 64 97 100 100 100 100 100 98 100
0 3 61 34 94 70 66 100 100 100 100 100 96 100 100 100 100 100 100 100 100 100 100 100 100 100 100 100 100 100 100 100 100 100 100 100 100 96 100 100 100 100 100 100
2 20 82 79 89 90 100 89 100 100 100 100 66 56 100 100 100 100 100 100 100 100 100 100 100 100 100 100 100 100 100 100 100 100 100 100 100 100 100 100 100 100 100 100
2 78 91 81 76 98 100 100 100 100 100 100 100 88 85 100 100 100 100 100 100 100 100 100 100 100 100 100 100 100 100 100 100 99 100 100 100 100 100 100 100 100 100 100
1 6 4 10 99 95 100 100 100 100 100 100 100 78 100 82 87 100 100 100 100 100 100 100 100 100 100 100 100 100 100 100 100 100 100 100 100 100 100 100 100 100 100 100
2 5 5 2 4 62 100 100 100 100 100 100 100 100 100 99 99 100 100 100 100 100 100 100 100 100 100 100 100 100 100 100 100 100 100 100 100 100 100 100 100 100 100 100
5 3 4 5 5 1 99 100 100 100 100 100 100 100 100 100 100 100 100 100 100 100 100 100 100 100 100 100 100 100 100 100 100 100 100 100 100 100 100 100 100 100 100 100
5 0 5 5 5 5 13 100 100 100 100 100 43 6 49 100 100 100 97 72 90 100 100 100 100 100 100 100 100 100 100 100 100 100 100 100 100 100 100 100 100 100 100 100
5 0 0 0 4 5 5 76 100 100 100 99 97 7 22 98 100 100 100 44 75 98 100 100 100 100 100 100 100 100 100 100 100 100 100 100 100 100 100 100 100 100 100 100
5 3 0 0 2 5 5 74 92 100 100 100 74 29 27 24 54 32 6 5 14 62 100 100 100 100 100 100 100 100 99 66 100 100 100 100 100 100 100 100 100 100 100 100

GFSCGP_prec_cloud_120.txt.gz
Cloud_Cover
0 0 0 0 0 0 0 1 3 0 68 85 100 84 93 100 99 61 100 18 6 5 0 14 23 21 0 0 0 0 3 8 0 0 18 3 3 49 10 0 0 0 0 0
0 0 0 0 0 0 0 0 3 0 12 100 88 10 100 92 100 100 98 18 15 69 33 15 33 27 24 0 0 0 2 5 13 1 16 56 16 46 36 0 0 0 0 0
0 0 0 0 0 0 0 0 4 1 0 35 100 8 98 83 78 100 100 16 71 30 55 0 3 36 2 1 0 0 5 5 4 24 5 6 55 0 0 3 0 0 0 0
0 0 0 0 0 0 0 0 0 0 0 25 100 76 6 86 68 100 100 70 81 93 7 11 0 1 0 0 0 0 0 4 5 5 67 5 2 37 30 1 0 2 0 0
0 0 0 0 0 0 0 0 0 0 3 10 70 100 80 52 98 47 100 100 7 100 1 8 0 0 0 0 0 0 0 5 2 10 4 2 9 23 0 35 6 0 0 0
0 0 0 0 0 0 0 0 0 0 2 1 44 100 8 51 99 44 100 100 72 54 4 0 0 16 0 0 1 0 0 0 0 95 2 3 9 5 23 0 12 10 9 1
0 0 0 0 0 0 0 0 6 4 7 4 3 100 96 54 85 100 100 100 96 5 6 1 0 47 0 0 0 0 0 0 4 3 91 1 34 66 5 1 0 0 30 30
0 0 0 0 0 4 0 4 14 100 70 96 3 90 100 30 5 99 100 97 100 53 47 2 1 0 1 0 0 0 0 0 0 0 5 48 100 39 5 96 5 2 0 4
0 2 0 0 0 0 32 0 3 83 90 44 74 5 100 98 94 100 100 99 100 70 11 8 6 3 0 0 0 0 0 0 0 0 0 0 4 5 23 67 96 32 10 4
3 1 2 0 0 0 6 87 19 5 48 93 100 14 100 100 98 100 100 89 100 78 52 6 5 3 0 1 0 0 0 0 0 0 0 7 44 0 2 5 5 3 12 5
1 0 65 0 1 45 33 1 2 92 100 100 100 100 99 100 100 100 100 100 98 100 100 56 96 24 3 40 4 0 0 0 0 0 2 0 20 38 5 5 5 5 4 5
2 4 6 93 76 0 2 100 100 98 53 57 54 96 77 100 100 100 100 100 100 100 100 100 100 94 0 4 47 0 0 0 0 0 0 5 100 100 99 42 5 5 5 5
2 3 5 9 79 4 0 32 1 35 74 100 100 99 97 100 100 100 100 100 100 100 100 100 100 73 5 7 70 52 0 2 0 0 1 4 100 100 100 100 53 50 9 12
37 3 5 6 100 54 99 1 0 0 87 100 100 62 100 100 100 100 100 100 100 100 100 100 100 100 86 81 100 94 22 6 6 0 0 0 38 100 100 87 82 83 37 8
7 4 2 0 2 54 100 100 11 2 16 20 100 98 100 100 100 100 100 100 100 100 100 100 100 100 100 92 99 100 94 73 71 40 5 3 5 69 22 24 35 44 94 65
1 0 1 1 5 5 7 52 95 28 0 0 95 100 100 100 100 100 100 100 100 100 100 100 100 100 100 100 100 100 100 76 90 84 66 27 5 65 16 43 63 61 46 55
1 4 8 18 90 99 100 73 91 85 5 4 87 79 100 100 100 100 100 100 100 100 100 100 100 100 100 100 100 100 100 74 97 35 32 25 49 96 100 100 100 100 49 95
3 4 5 13 16 100 58 64 47 100 78 58 94 100 100 84 100 100 100 100 100 100 100 99 99 100 100 100 100 100 100 100 91 68 94 100 53 80 86 66 84 100 100 100
0 4 79 42 94 96 96 4 83 100 76 100 91 100 100 92 100 100 100 100 100 100 100 100 100 100 100 100 100 100 100 100 100 100 100 100 79 74 100 99 100 100 100 100
0 0 9 100 95 100 100 32 100 100 100 100 100 100 100 100 36 94 100 100 100 100 100 100 100 100 100 100 100 100 100 100 100 100 100 100 100 100 100 100 100 100 100 100
28 4 90 100 98 98 100 100 100 99 83 100 56 100 100 97 74 100 100 100 100 100 100 100 100 100 100 100 100 100 100 100 100 100 100 100 100 100 100 100 100 100 100 100
6 41 90 80 65 65 37 100 100 92 9 79 100 100 100 98 100 100 100 100 100 100 100 100 100 100 100 100 100 100 100 100 100 100 100 100 100 100 100 100 100 100 100 100
22 19 64 19 98 8 2 100 100 100 6 60 100 100 100 100 65 30 100 100 100 100 100 100 100 100 100 100 100 100 100 100 100 100 100 100 100 100 100 100 100 100 100 100
5 0 3 2 28 5 0 90 100 100 49 77 99 100 100 100 100 100 100 100 100 100 100 100 100 100 100 100 100 100 100 100 100 100 100 100 100 100 99 100 100 100 100 100
50 2 4 0 0 0 0 7 100 83 100 62 44 74 100 100 100 100 100 100 100 92 100 100 100 100 100 100 100 100 100 100 100 100 100 100 100 100 100 100 100 100 100 100
5 4 4 31 0 15 5 5 59 100 100 96 91 66 100 100 100 100 100 100 100 100 96 100 100 100 100 100 100 100 100 100 100 100 100 100 100 100 100 100 100 100 100 100

GFSCGP_prec_cloud_123.txt.gz
Cloud_Cover
0 0 0 0 3 29 2 86 42 77 0 33 93 100 94 68 100 100 84 5 55 98 53 95 98 13 5 5 0 0 10 0 75 35 64 100 75 100 100 100 46 1 0 19
0 0 0 0 4 4 0 4 15 31 0 36 30 100 42 11 96 100 100 41 96 64 96 82 90 43 8 7 5 3 5 1 35 42 78 96 90 80 100 94 0 56 32 5
0 0 0 0 0 0 0 5 90 86 1 2 100 100 96 7 59 97 100 97 62 42 100 78 40 59 35 36 83 5 5 5 5 100 72 75 56 96 24 48 1 13 67 12
0 0 0 0 0 0 0 3 1 5 5 96 100 100 100 25 16 28 100 93 72 100 71 90 56 69 30 8 14 27 3 68 99 55 86 48 4 74 24 88 81 54 31 55
0 0 0 0 0 0 0 4 0 5 5 69 86 38 100 94 8 38 35 100 98 66 100 95 36 59 86 3 0 9 5 16 27 98 52 2 0 100 69 12 58 9 0 91
0 0 0 0 0 0 0 0 0 5 54 75 5 47 100 100 39 90 70 99 80 85 88 100 95 60 99 32 13 7 2 97 94 16 5 4 0 100 8 94 62 54 33 9
0 0 0 0 0 0 0 0 4 65 81 9 21 82 56 100 100 55 100 100 35 100 76 80 98 100 14 71 4 81 1 6 100 6 28 12 16 1 0 0 1 93 96 46
0 2 0 0 0 4 0 0 35 100 100 84 100 45 32 90 78 5 8 40 21 98 98 100 100 100 78 84 13 100 0 0 13 100 5 13 5 14 0 1 21 0 60 17
5 4 0 0 0 0 39 6 3 95 47 98 51 78 16 11 100 42 75 55 84 82 97 100 71 100 100 0 67 32 31 2 3 32 84 100 47 6 19 86 3 1 5 12
5 3 4 5 0 4 10 33 14 27 79 100 100 90 100 0 64 50 84 98 44 100 100 78 80 99 11 1 69 18 79 4 0 7 19 52 38 4 88 100 37 45 5 2
4 2 91 4 4 20 36 12 95 100 44 35 90 94 95 99 7 74 100 82 100 100 100 97 100 97 97 0 12 0 29 6 0 0 20 26 95 99 28 75 56 18 100 48
45 4 15 95 100 48 91 74 34 93 98 76 84 98 94 45 5 100 99 99 100 100 100 100 46 100 100 18 69 1 3 1 0 0 12 25 18 42 80 24 90 100 100 100
5 3 1 7 26 54 44 4 56 100 14 74 29 84 56 85 94 58 100 100 62 100 100 100 100 64 81 75 32 47 1 0 0 0 5 6 21 100 98 48 12 46 64 12
3 0 0 0 79 22 8 5 0 19 100 100 54 75 0 100 89 46 100 100 100 100 100 100 96 98 12 96 93 99 78 17 0 7 0 0 21 100 98 100 92 9 36 10
5 0 0 1 5 4 5 10 91 97 18 100 98 18 98 99 100 22 100 100 100 100 100 100 100 99 100 100 82 11 89 83 19 26 38 0 0 18 100 74 100 97 85 22
5 3 0 0 2 1 0 3 14 100 100 4 5 92 100 100 100 47 100 100 100 100 100 100 100 100 100 97 70 98 74 99 100 45 30 73 8 10 8 100 100 92 14 7
5 5 49 98 100 63 48 27 12 94 93 4 28 42 8 100 96 100 100 100 100 100 96 88 100 100 100 100 100 100 93 100 97 88 70 12 19 35 23 16 40 98 97 99
5 5 4 2 41 67 67 28 33 83 21 56 100 100 57 100 95 100 100 100 100 100 100 100 100 100 100 100 100 100 99 100 100 100 100 98 89 43 32 45 50 36 100 100
4 5 12 100 98 70 98 91 100 100 6 9 99 100 8 52 98 100 100 100 100 100 100 100 100 100 100 100 100 100 100 100 100 100 100 100 86 50 34 82 96 100 100 100
12 5 3 20 94 8 100 100 100 100 67 4 9 95 0 0 0 97 100 100 100 100 100 100 100 100 100 100 100 100 100 100 100 100 100 100 100 95 69 100 100 72 100 93
62 6 64 95 100 26 100 88 86 87 58 5 65 18 0 50 64 100 100 100 100 100 100 100 100 100 100 100 100 100 100 100 100 100 100 100 100 100 99 100 100 100 100 100
96 93 100 68 86 77 100 4 6 57 100 100 90 100 95 100 92 100 100 100 100 100 100 100 100 100 100 100 100 100 100 100 100 100 100 100 100 100 100 100 100 100 100 100
15 98 88 100 93 9 3 1 25 85 20 64 33 100 99 100 100 100 100 100 100 100 100 100 100 100 100 100 100 100 100 100 100 100 100 100 100 100 100 100 100 100 100 100
10 5 5 25 17 50 4 1 34 50 99 58 52 100 100 100 100 100 100 100 100 100 100 100 100 100 100 100 100 100 100 100 100 100 100 100 100 100 100 100 100 100 100 100
78 62 6 5 3 10 30 8 37 90 100 54 99 100 100 100 100 100 100 100 100 100 100 100 100 100 100 100 100 100 100 100 100 100 100 100 100 100 100 100 100 100 100 100
64 41 41 98 20 34 100 31 67 47 100 100 87 16 9 100 100 100 100 100 100 100 100 100 100 100 100 100 100 100 100 100 100 100 100 100 100 100 100 100 100 100 100 100

GFSCGP_prec_cloud_126.txt.gz
Cloud_Cover
0 0 0 0 3 76 31 30 100 34 51 4 100 89 61 79 99 78 100 100 100 13 14 46 33 4 0 5 5 76 100 52 49 9 5 1 0 22 100 86 2 0 0 4
0 0 0 0 1 10 58 14 22 3 1 0 42 78 25 79 23 95 100 100 94 99 74 82 97 16 3 4 3 5 99 0 53 6 57 1 32 49 93 28 0 0 2 0
0 0 0 0 1 4 5 5 76 99 30 0 0 55 99 100 26 78 83 99 100 100 26 100 0 64 0 2 5 5 96 9 10 22 100 39 1 57 73 28 0 7 62 0
0 0 0 0 0 0 0 2 8 99 33 4 4 35 84 100 38 12 65 96 100 88 95 1 0 12 28 0 1 1 85 74 6 1 1 14 18 100 64 40 0 0 86 38
0 0 0 0 0 0 0 5 5 3 3 4 35 1 4 99 99 5 98 53 100 99 84 5 75 4 1 0 0 0 100 100 100 5 1 0 0 32 82 97 59 6 5 0
0 0 0 0 0 0 0 0 0 0 5 2 10 35 5 72 100 97 82 58 32 94 100 45 54 43 0 36 0 0 78 100 18 5 0 0 0 16 71 1 6 23 0 0
0 0 0 0 0 0 0 0 0 3 5 99 70 96 100 11 100 100 73 78 82 94 100 93 97 100 71 12 86 0 4 100 5 5 5 0 0 0 2 0 38 4 16 69
17 4 0 0 0 0 0 0 3 82 100 95 99 56 100 83 2 69 100 67 57 36 40 100 29 95 100 66 3 12 0 6 61 4 13 15 0 0 0 0 0 4 17 28
38 12 0 0 0 0 0 4 2 5 51 98 100 91 0 4 0 0 82 73 5 46 4 30 100 97 27 100 6 4 0 0 3 4 8 56 57 0 0 40 0 0 0 62
12 4 5 1 0 0 0 38 34 3 4 11 22 81 5 58 74 62 78 21 72 60 94 14 99 70 90 57 12 5 0 0 1 0 7 43 13 63 27 10 0 0 0 0
0 2 50 4 0 3 49 0 0 14 0 14 39 65 5 5 0 4 4 92 89 98 48 42 71 80 100 23 51 10 1 0 0 0 4 0 2 42 86 92 27 4 0 4
5 6 6 31 98 36 1 100 96 60 38 99 8 12 30 100 24 74 0 98 99 78 88 100 84 100 63 100 78 0 5 0 0 0 38 34 0 4 34 55 23 100 98 10
1 3 0 0 2 17 20 14 18 54 20 99 83 12 1 14 23 88 60 100 100 99 100 100 98 96 100 95 81 57 0 0 0 0 0 6 3 36 32 72 61 10 92 100
5 5 2 1 24 12 58 57 11 8 0 3 84 85 57 86 84 23 10 32 93 100 53 100 97 100 100 97 96 100 0 0 0 0 0 0 1 1 0 0 62 20 75 92
5 5 5 0 3 5 0 5 13 8 2 0 27 14 62 100 28 5 4 24 0 94 98 21 86 100 86 81 100 100 61 2 0 0 0 0 0 1 14 70 7 4 5 52
5 5 5 5 5 1 0 0 0 0 0 0 0 5 100 45 5 5 0 64 0 1 32 12 58 96 100 18 100 100 100 76 14 0 0 0 0 0 0 10 5 10 68 19
44 5 20 5 19 100 85 12 55 4 0 0 0 65 10 90 100 100 100 100 90 82 95 98 92 100 100 90 100 100 100 100 88 65 72 12 5 3 7 5 5 34 100 100
5 5 5 5 5 4 35 13 0 2 3 0 35 100 57 31 100 100 100 100 100 100 66 100 100 100 100 100 100 100 100 100 100 88 85 98 100 65 47 5 0 5 91 100
5 5 5 5 38 26 86 16 0 0 0 0 18 100 5 12 100 100 100 100 100 100 100 100 100 100 100 100 100 100 100 100 100 10 100 100 100 100 100 100 96 10 94 54
5 5 5 100 93 5 19 0 1 0 2 34 22 52 69 72 100 100 100 100 99 100 100 100 100 100 100 100 100 100 100 100 100 100 100 100 100 100 100 100 58 27 61 87
8 13 56 56 10 27 54 10 43 9 50 100 35 6 61 74 72 100 100 100 100 100 100 100 100 100 100 100 100 100 100 100 100 100 100 100 100 100 100 100 100 100 100 100
5 98 77 57 54 24 5 6 86 74 90 100 100 100 100 100 100 100 100 100 100 100 100 100 100 100 100 100 100 100 100 100 100 100 100 100 100 100 100 100 100 100 100 99
7 99 14 49 78 60 5 0 1 70 100 100 100 100 100 100 100 100 79 100 100 100 100 100 100 100 100 100 100 100 100 100 100 100 100 100 100 100 100 100 100 100 100 100
22 91 15 57 70 57 1 1 4 4 95 100 100 100 100 100 98 92 15 60 100 91 100 100 100 100 100 100 100 100 100 100 100 100 100 100 100 100 100 100 100 100 100 100
95 100 96 5 5 5 0 0 34 77 2 100 100 100 100 86 97 27 65 81 70 100 100 100 100 100 100 100 100 100 100 100 100 100 100 100 100 100 100 100 100 100 100 100
100 100 100 89 5 15 0 0 12 74 90 94 100 100 100 18 81 100 49 36 65 100 100 100 100 100 100 100 100 100 100 100 100 100 100 100 100 100 100 100 100 100 100 100

GFSCGP_prec_cloud_129.txt.gz
Cloud_Cover
0 0 0 0 0 4 16 98 10 87 72 47 35 100 100 100 100 94 100 100 100 35 72 27 0 5 0 3 5 5 5 5 6 0 0 0 75 9 2 5 27 12 0 0
0 0 0 0 1 10 80 95 29 5 1 4 3 77 100 100 100 100 96 100 100 100 100 1 0 0 0 4 10 100 12 1 14 0 0 12 0 1 1 2 0 0 0 9
0 0 0 0 0 2 20 31 6 43 55 7 2 2 100 96 100 99 100 100 88 52 100 54 21 0 0 1 5 90 85 31 38 0 0 0 4 0 0 6 0 13 100 100
0 0 0 0 0 0 0 0 3 71 39 2 0 0 30 72 100 100 100 100 86 100 100 60 97 3 0 0 0 71 100 91 5 5 2 71 0 3 0 0 0 10 100 100
0 0 0 0 0 0 0 5 5 24 4 0 0 0 0 67 93 12 24 58 100 100 95 97 8 0 0 0 0 56 100 100 0 0 0 0 0 77 59 0 8 5 44 98
0 0 0 0 0 0 0 0 0 0 0 0 5 14 2 5 61 28 5 76 32 94 91 56 75 2 0 0 0 4 100 80 5 0 0 0 0 0 8 0 80 0 1 53
0 0 0 0 0 0 0 0 0 0 2 5 8 84 36 32 98 40 85 100 72 100 72 70 100 27 1 2 0 0 34 66 30 5 0 0 0 2 38 0 0 0 0 0
1 0 0 0 0 0 0 0 0 3 96 27 62 74 14 5 37 5 1 100 45 98 72 39 100 63 43 21 1 0 0 48 4 5 4 0 0 0 0 0 0 0 2 0
6 7 3 0 0 0 0 0 0 0 27 32 92 11 5 32 5 3 0 1 100 26 34 14 10 58 23 66 5 0 0 0 4 1 5 1 0 0 0 0 0 0 0 0
0 5 4 2 0 0 0 0 3 0 0 5 44 6 29 90 10 6 30 4 26 51 70 4 5 15 86 30 28 4 3 0 0 2 4 8 34 0 0 0 0 0 0 3
0 0 3 41 0 0 0 0 0 1 4 4 17 99 90 92 12 5 24 3 67 100 52 87 100 100 76 100 34 8 5 3 0 0 0 0 5 5 2 0 0 0 4 5
0 0 0 5 8 88 5 0 12 2 0 4 0 5 45 93 6 5 5 5 0 7 88 100 100 24 100 100 32 73 5 5 3 0 1 0 4 4 5 5 3 4 4 5
0 0 0 0 4 12 5 4 87 69 6 98 4 8 5 5 19 46 12 0 0 0 21 31 4 40 100 100 18 61 10 25 8 4 0 0 0 6 91 9 5 7 5 14
1 0 0 0 0 1 0 5 54 90 5 5 5 14 6 66 37 45 80 4 0 0 40 38 6 83 96 88 96 100 41 68 22 40 5 4 2 1 3 4 3 97 56 90
0 1 5 1 0 0 0 0 4 67 88 27 0 5 0 1 67 7 6 5 3 56 35 81 100 99 63 24 100 100 100 100 100 44 5 13 5 5 1 0 0 76 29 94
5 5 5 22 2 0 0 0 0 0 3 0 0 0 0 0 0 5 18 82 58 19 99 100 100 100 98 64 100 100 100 100 100 100 100 94 100 52 5 0 5 70 18 5
5 5 5 6 5 4 0 0 4 1 0 0 0 0 0 0 0 4 82 60 47 91 99 100 100 100 94 99 100 100 100 100 100 100 100 94 41 5 5 5 5 12 100 100
10 6 5 80 5 4 0 5 4 5 3 4 4 3 2 0 0 1 98 100 62 48 91 17 99 100 42 98 100 100 100 100 100 100 100 100 100 59 19 58 0 0 9 100
5 5 12 5 5 0 0 6 12 0 2 3 0 0 0 0 7 67 26 22 100 58 84 85 84 100 100 100 100 100 100 100 100 100 100 100 100 100 100 100 91 43 15 100
41 5 5 5 4 1 4 5 4 0 0 0 0 0 0 2 0 21 44 17 100 100 100 99 98 100 100 100 100 100 100 100 100 100 100 100 100 100 100 100 100 100 100 100
63 5 5 5 5 5 6 16 4 4 0 0 0 1 4 7 23 35 90 4 100 100 94 97 100 100 100 100 100 100 100 100 100 100 100 100 100 100 100 100 100 100 100 100
29 6 5 5 5 11 5 4 5 2 0 1 3 15 100 100 61 8 17 30 100 100 96 96 100 100 100 100 100 100 100 100 100 100 100 100 100 100 100 100 100 100 100 100
100 71 6 5 5 3 17 5 5 1 0 96 100 100 100 100 100 76 100 100 100 100 100 98 100 100 100 100 100 100 100 100 100 100 100 100 100 100 100 100 100 100 100 100
87 49 5 5 5 10 2 6 67 4 100 83 86 100 94 100 100 100 100 100 100 100 100 100 100 100 100 100 100 100 100 100 100 100 100 100 100 100 100 100 100 100 100 100
100 19 59 6 7 2 5 4 4 14 100 100 100 100 100 100 100 100 100 100 97 100 100 100 100 100 100 100 100 100 100 100 100 100 100 100 100 100 100 100 100 100 100 100
96 27 96 97 20 18 56 8 2 5 87 100 100 100 100 100 100 100 99 100 57 45 91 100 100 100 100 100 100 100 100 100 100 100 100 100 100 100 100 100 100 100 100 100